Terminal Aerodrome Forecast
Issued by NWS

Home | Current Version | Previous Version | Text Only | Print | Product List | Glossary On
Versions: 1 2 3 4 5 6 7 8 9 10 11 12 13 14 15 16 17 18 19
000
FTUS46 KMTR 242300
TAFMRY
TAF
KMRY 242335Z 2500/2524 26008KT P6SM OVC017
     FM250200 24008KT P6SM OVC012
     FM251800 26008KT P6SM OVC015=

USA.gov is the U.S. government's official web portal to all federal, state and local government web resources and services.